Tracking 25193 objects as of 17-Jan-2022
HD Live streaming from Space Station
objects crossing your sky now

GORIZONT 31

Track GORIZONT 31 now!
GORIZONT 31 is classified as:


NORAD ID: 23775
Int'l Code: 1996-005A
Perigee: 35,827.1 km
Apogee: 35,970.8 km
Inclination: 14.5 °
Period: 1,441.5 minutes
Semi major axis: 42269 km
RCS: 12.5892 m2 (large)
Launch date: January 25, 1996
Source: Commonwealth of Independent States (former USSR) (CIS)
Launch site: TYURATAM MISSILE AND SPACE COMPLEX (TTMTR)

Telecommunications; telephone and television communications to the Russian republic.
aabbcc
Your satellite tracking list
Your tracking list is empty




NASA's NSSDC Master Catalog

Two Line Element Set (TLE):
1 23775U 96005A   22017.61459323  .00000029  00000-0  00000-0 0  9990
2 23775  14.5186   6.7553 0017000 196.1110 324.3207  0.99897736 94950
Source of the keplerian elements: AFSPC